Location: Alafon
(8.4500°N, 4.2333°E)
Time: 17:21:00
(UTC+00:00)

deb Explorer IX - Pass Details

Date: 01 August 2021
Orbit: 545 x 1091 km, 38.8° (Epoch: 20 September)

Event Time Altitude Azimuth Distance (km) Brightness Sun altitude
Rises 20:57:58 0° 293° (WNW) 3,818 ? -40.2°
Reaches altitude 10° 21:00:55 10° 285° (WNW) 2,901 ? -40.8°
Enters shadow 21:04:42 27° 259° (W) 1,949 ? -41.6°
Maximum altitude 21:07:18 35° 222° (SW) 1,694 - -42.1°
Drops below altitude 10° 21:13:40 10° 160° (SSE) 2,886 - -43.5°
Sets 21:16:36 0° 151° (SSE) 3,795 - -44.1°
